| time (UTC) | temp F | wind direction | speed knots | gust knots | rain 1hr in | rain 24hr in | rain mn in | humidity % | barometer mb |
| 20260506114005 | 76 | 193 | 0.9 | 0.0 | 0.00 | 0.00 | 0.00 | 88 | 1008.5 |
| 20260506113505 | 76 | 193 | 0.9 | 0.0 | 0.00 | 0.00 | 0.00 | 88 | 1008.5 |
| 20260506113008 | 76 | 193 | 0.9 | 0.0 | 0.00 | 0.00 | 0.00 | 88 | 1008.5 |
| 20260506112506 | 76 | 193 | 0.9 | 0.0 | 0.00 | 0.00 | 0.00 | 88 | 1008.5 |
| 20260506112006 | 76 | 144 | 0.9 | 0.0 | 0.00 | 0.00 | 0.00 | 88 | 1008.5 |
| 20260506111505 | 76 | 144 | 0.9 | 0.0 | 0.00 | 0.00 | 0.00 | 88 | 1008.5 |
| 20260506111004 | 76 | 172 | 0.9 | 0.0 | 0.00 | 0.00 | 0.00 | 88 | 1008.5 |
| 20260506110504 | 76 | 101 | 0.9 | 0.0 | 0.00 | 0.00 | 0.00 | 88 | 1008.4 |
| 20260506110004 | 76 | 192 | 0.9 | 0.0 | 0.00 | 0.00 | 0.00 | 88 | 1008.5 |
| 20260506105503 | 76 | 220 | 0.9 | 0.0 | 0.00 | 0.00 | 0.00 | 88 | 1008.5 |
| 20260506105002 | 76 | 111 | 0.9 | 0.0 | 0.00 | 0.00 | 0.00 | 88 | 1008.4 |
| 20260506104502 | 76 | 234 | 0.9 | 0.0 | 0.00 | 0.00 | 0.00 | 88 | 1008.4 |
| 20260506104003 | 76 | 128 | 0.9 | 0.0 | 0.00 | 0.00 | 0.00 | 88 | 1008.3 |
| 20260506103502 | 76 | 95 | 0.0 | 0.0 | 0.00 | 0.00 | 0.00 | 88 | 1008.2 |
| 20260506103101 | 76 | 156 | 0.0 | 0.0 | 0.00 | 0.00 | 0.00 | 88 | 1008.2 |
| 20260506102600 | 76 | 156 | 0.9 | 0.0 | 0.00 | 0.00 | 0.00 | 88 | 1008.2 |
| 20260506102059 | 76 | 176 | 1.7 | 0.0 | 0.00 | 0.00 | 0.00 | 88 | 1008.1 |
| 20260506101559 | 76 | 175 | 0.9 | 0.0 | 0.00 | 0.00 | 0.00 | 88 | 1008.0 |
| 20260506101059 | 76 | 182 | 1.7 | 0.0 | 0.00 | 0.00 | 0.00 | 88 | 1008.0 |
| 20260506100558 | 76 | 198 | 1.7 | 0.0 | 0.00 | 0.00 | 0.00 | 88 | 1008.0 |
| 20260506100058 | 76 | 132 | 0.9 | 0.0 | 0.00 | 0.00 | 0.00 | 88 | 1007.9 |
| 20260506095558 | 76 | 207 | 1.7 | 0.0 | 0.00 | 0.00 | 0.00 | 88 | 1007.8 |
| 20260506095058 | 76 | 171 | 2.6 | 0.0 | 0.00 | 0.00 | 0.00 | 88 | 1007.7 |
| 20260506094558 | 76 | 190 | 1.7 | 0.0 | 0.00 | 0.00 | 0.00 | 88 | 1007.7 |
| 20260506094058 | 76 | 186 | 2.6 | 0.0 | 0.00 | 0.00 | 0.00 | 88 | 1007.6 |
| 20260506093557 | 76 | 205 | 1.7 | 0.0 | 0.00 | 0.00 | 0.00 | 88 | 1007.5 |
| 20260506093057 | 76 | 184 | 1.7 | 0.0 | 0.00 | 0.00 | 0.00 | 88 | 1007.4 |
| 20260506092557 | 76 | 118 | 2.6 | 0.0 | 0.00 | 0.00 | 0.00 | 88 | 1007.3 |
| 20260506092057 | 76 | 223 | 1.7 | 0.0 | 0.00 | 0.00 | 0.00 | 88 | 1007.3 |
| 20260506091557 | 76 | 187 | 1.7 | 0.0 | 0.00 | 0.00 | 0.00 | 88 | 1007.3 |
| 20260506091056 | 76 | 186 | 1.7 | 0.0 | 0.00 | 0.00 | 0.00 | 88 | 1007.2 |
| 20260506090556 | 76 | 147 | 1.7 | 0.0 | 0.00 | 0.00 | 0.00 | 88 | 1007.1 |
| 20260506090056 | 76 | 219 | 1.7 | 0.0 | 0.00 | 0.00 | 0.00 | 88 | 1007.1 |
| 20260506085554 | 76 | 196 | 1.7 | 0.0 | 0.00 | 0.00 | 0.00 | 88 | 1007.1 |
| 20260506085054 | 76 | 139 | 2.6 | 0.0 | 0.00 | 0.00 | 0.00 | 88 | 1007.2 |
| 20260506084554 | 76 | 208 | 1.7 | 0.0 | 0.00 | 0.00 | 0.00 | 88 | 1007.2 |
| 20260506084053 | 76 | 236 | 1.7 | 0.0 | 0.00 | 0.00 | 0.00 | 88 | 1007.2 |
| 20260506083553 | 76 | 208 | 1.7 | 0.0 | 0.00 | 0.00 | 0.00 | 88 | 1007.3 |
| 20260506083053 | 76 | 200 | 1.7 | 0.0 | 0.00 | 0.00 | 0.00 | 88 | 1007.2 |
| 20260506082552 | 76 | 178 | 2.6 | 0.0 | 0.00 | 0.00 | 0.00 | 88 | 1007.3 |
| 20260506082052 | 76 | 213 | 2.6 | 0.0 | 0.00 | 0.00 | 0.00 | 88 | 1007.2 |
| 20260506081553 | 76 | 190 | 1.7 | 0.0 | 0.00 | 0.00 | 0.00 | 87 | 1007.2 |
| 20260506081052 | 76 | 185 | 2.6 | 0.0 | 0.00 | 0.00 | 0.00 | 87 | 1007.2 |
| 20260506080552 | 76 | 151 | 1.7 | 0.0 | 0.00 | 0.00 | 0.00 | 87 | 1007.2 |
| 20260506073054 | 76 | 211 | 2.6 | 0.0 | 0.00 | 0.00 | 0.00 | 87 | 1007.5 |
| 20260506072548 | 76 | 175 | 2.6 | 0.0 | 0.00 | 0.00 | 0.00 | 87 | 1007.6 |
| 20260506072047 | 76 | 203 | 2.6 | 0.0 | 0.00 | 0.00 | 0.00 | 87 | 1007.8 |
| 20260506071551 | 76 | 224 | 2.6 | 0.0 | 0.00 | 0.00 | 0.00 | 87 | 1007.8 |
| 20260506071046 | 76 | 143 | 3.5 | 0.0 | 0.00 | 0.00 | 0.00 | 87 | 1007.7 |
| 20260506070546 | 76 | 169 | 2.6 | 0.0 | 0.00 | 0.00 | 0.00 | 87 | 1007.8 |
| 20260506070106 | 76 | 221 | 2.6 | 0.0 | 0.00 | 0.00 | 0.00 | 87 | 1007.8 |
| 20260506062046 | 76 | 186 | 2.6 | 0.0 | 0.00 | 0.00 | 0.00 | 87 | 1007.9 |
| 20260506061645 | 76 | 168 | 2.6 | 0.0 | 0.00 | 0.00 | 0.00 | 87 | 1007.9 |
| 20260506061046 | 76 | 151 | 2.6 | 0.0 | 0.00 | 0.00 | 0.00 | 87 | 1007.8 |
| 20260506060542 | 76 | 180 | 2.6 | 0.0 | 0.00 | 0.00 | 0.00 | 87 | 1007.9 |
| 20260506051037 | 77 | 211 | 2.6 | 0.0 | 0.00 | 0.00 | 0.00 | 86 | 1008.0 |
| 20260506050536 | 77 | 130 | 1.7 | 0.0 | 0.00 | 0.00 | 0.00 | 86 | 1007.9 |
| 20260506045033 | 77 | 149 | 2.6 | 0.0 | 0.00 | 0.00 | 0.00 | 86 | 1007.9 |
| 20260506044546 | 77 | 196 | 2.6 | 0.0 | 0.00 | 0.00 | 0.00 | 86 | 1007.9 |
| 20260506044032 | 77 | 190 | 1.7 | 0.0 | 0.00 | 0.00 | 0.00 | 86 | 1008.0 |
| 20260506043533 | 77 | 184 | 1.7 | 0.0 | 0.00 | 0.00 | 0.00 | 86 | 1008.0 |
| 20260506043033 | 77 | 100 | 2.6 | 0.0 | 0.00 | 0.00 | 0.00 | 86 | 1007.9 |
| 20260506042532 | 77 | 128 | 1.7 | 0.0 | 0.00 | 0.00 | 0.00 | 86 | 1007.9 |
| 20260506042032 | 77 | 114 | 1.7 | 0.0 | 0.00 | 0.00 | 0.00 | 85 | 1007.7 |
| 20260506041535 | 77 | 141 | 2.6 | 0.0 | 0.00 | 0.00 | 0.00 | 85 | 1007.7 |
| 20260506041032 | 77 | 101 | 2.6 | 0.0 | 0.00 | 0.00 | 0.00 | 85 | 1007.7 |
| 20260506040532 | 77 | 179 | 2.6 | 0.0 | 0.00 | 0.00 | 0.00 | 85 | 1007.6 |
| 20260506040034 | 77 | 119 | 2.6 | 0.0 | 0.00 | 0.00 | 0.00 | 85 | 1007.5 |
| 20260506035532 | 77 | 156 | 2.6 | 0.0 | 0.00 | 0.00 | 0.00 | 85 | 1007.5 |
| 20260506035031 | 78 | 174 | 1.7 | 0.0 | 0.00 | 0.00 | 0.00 | 84 | 1007.3 |
| 20260506034531 | 78 | 73 | 1.7 | 0.0 | 0.00 | 0.00 | 0.00 | 84 | 1007.3 |
| 20260506034030 | 78 | 91 | 1.7 | 0.0 | 0.00 | 0.00 | 0.00 | 84 | 1007.3 |
| 20260506033530 | 78 | 208 | 1.7 | 0.0 | 0.00 | 0.00 | 0.00 | 84 | 1007.3 |
| 20260506033030 | 78 | 163 | 1.7 | 0.0 | 0.00 | 0.00 | 0.00 | 84 | 1007.3 |
| 20260506032530 | 78 | 217 | 1.7 | 0.0 | 0.00 | 0.00 | 0.00 | 84 | 1007.2 |
| 20260506032031 | 78 | 246 | 1.7 | 0.0 | 0.00 | 0.00 | 0.00 | 84 | 1007.2 |
| 20260506031534 | 78 | 250 | 2.6 | 0.0 | 0.00 | 0.00 | 0.00 | 84 | 1007.0 |
| 20260506031029 | 78 | 173 | 1.7 | 0.0 | 0.00 | 0.00 | 0.00 | 83 | 1007.0 |
| 20260506030529 | 78 | 234 | 1.7 | 0.0 | 0.00 | 0.00 | 0.00 | 83 | 1007.0 |
| 20260506030030 | 79 | 133 | 2.6 | 0.0 | 0.00 | 0.00 | 0.00 | 83 | 1006.9 |
| 20260506025532 | 79 | 144 | 2.6 | 0.0 | 0.00 | 0.00 | 0.00 | 82 | 1006.8 |
| 20260506025029 | 79 | 195 | 2.6 | 0.0 | 0.00 | 0.00 | 0.00 | 82 | 1006.7 |
| 20260506024534 | 79 | 161 | 2.6 | 0.0 | 0.00 | 0.00 | 0.00 | 82 | 1006.7 |
| 20260506024029 | 79 | 136 | 1.7 | 0.0 | 0.00 | 0.00 | 0.00 | 81 | 1006.6 |
| 20260506023529 | 79 | 173 | 2.6 | 0.0 | 0.00 | 0.00 | 0.00 | 81 | 1006.4 |
| 20260506023028 | 79 | 185 | 2.6 | 0.0 | 0.00 | 0.00 | 0.00 | 80 | 1006.3 |
| 20260506022528 | 80 | 113 | 2.6 | 0.0 | 0.00 | 0.00 | 0.00 | 80 | 1006.2 |
| 20260506022028 | 80 | 96 | 1.7 | 0.0 | 0.00 | 0.00 | 0.00 | 79 | 1006.1 |
| 20260506021528 | 80 | 169 | 1.7 | 0.0 | 0.00 | 0.00 | 0.00 | 79 | 1005.9 |
| 20260506021028 | 80 | 155 | 1.7 | 0.0 | 0.00 | 0.00 | 0.00 | 79 | 1005.9 |
| 20260506020530 | 80 | 168 | 1.7 | 0.0 | 0.00 | 0.00 | 0.00 | 78 | 1005.8 |
| 20260506020028 | 80 | 215 | 0.9 | 0.0 | 0.00 | 0.00 | 0.00 | 78 | 1005.8 |
| 20260506015527 | 80 | 178 | 1.7 | 0.0 | 0.00 | 0.00 | 0.00 | 78 | 1005.7 |
| 20260506015027 | 81 | 129 | 1.7 | 0.0 | 0.00 | 0.00 | 0.00 | 78 | 1005.7 |
| 20260506014528 | 81 | 101 | 1.7 | 0.0 | 0.00 | 0.00 | 0.00 | 77 | 1005.6 |
| 20260506014026 | 81 | 161 | 1.7 | 0.0 | 0.00 | 0.00 | 0.00 | 77 | 1005.7 |
| 20260506013526 | 81 | 234 | 1.7 | 0.0 | 0.00 | 0.00 | 0.00 | 77 | 1005.7 |
| 20260506013027 | 81 | 110 | 0.9 | 0.0 | 0.00 | 0.00 | 0.00 | 77 | 1005.6 |
| 20260506012528 | 81 | 88 | 0.9 | 0.0 | 0.00 | 0.00 | 0.00 | 76 | 1005.6 |
| 20260506012027 | 81 | 151 | 0.9 | 0.0 | 0.00 | 0.00 | 0.00 | 76 | 1005.6 |
| 20260506011528 | 81 | 134 | 0.9 | 0.0 | 0.00 | 0.00 | 0.00 | 76 | 1005.6 |
| 20260506011027 | 82 | 159 | 0.9 | 0.0 | 0.00 | 0.00 | 0.00 | 75 | 1005.7 |
| 20260506010526 | 82 | 154 | 0.9 | 0.0 | 0.00 | 0.00 | 0.00 | 75 | 1005.7 |
| 20260506010026 | 82 | 112 | 0.9 | 0.0 | 0.00 | 0.00 | 0.00 | 75 | 1005.7 |
| 20260506005526 | 82 | 218 | 0.9 | 0.0 | 0.00 | 0.00 | 0.00 | 74 | 1005.6 |
| 20260506005027 | 83 | 150 | 0.9 | 0.0 | 0.00 | 0.00 | 0.00 | 74 | 1005.6 |
| 20260506004529 | 83 | 217 | 0.9 | 0.0 | 0.00 | 0.00 | 0.00 | 74 | 1005.7 |
| 20260506004024 | 83 | 106 | 0.9 | 0.0 | 0.00 | 0.00 | 0.00 | 74 | 1005.6 |
| 20260506003525 | 83 | 227 | 1.7 | 0.0 | 0.00 | 0.00 | 0.00 | 74 | 1005.5 |
| 20260506003025 | 83 | 80 | 1.7 | 0.0 | 0.00 | 0.00 | 0.00 | 73 | 1005.5 |
| 20260506002524 | 83 | 132 | 0.9 | 0.0 | 0.00 | 0.00 | 0.00 | 73 | 1005.5 |
| 20260506002024 | 84 | 175 | 1.7 | 0.0 | 0.00 | 0.00 | 0.00 | 73 | 1005.5 |
| 20260506001524 | 84 | 178 | 1.7 | 0.0 | 0.00 | 0.00 | 0.00 | 72 | 1005.5 |
| 20260506001024 | 84 | 174 | 1.7 | 0.0 | 0.00 | 0.00 | 0.00 | 72 | 1005.4 |
| 20260506000524 | 84 | 206 | 1.7 | 0.0 | 0.00 | 0.00 | 0.00 | 72 | 1005.4 |
| 20260506000023 | 84 | 221 | 1.7 | 0.0 | 0.00 | 0.00 | 0.00 | 72 | 1005.3 |
| 20260505235522 | 84 | 193 | 1.7 | 0.0 | 0.00 | 0.00 | 0.00 | 72 | 1005.3 |
| 20260505235023 | 84 | 105 | 1.7 | 0.0 | 0.00 | 0.00 | 0.00 | 72 | 1005.2 |
| 20260505234548 | 84 | 131 | 1.7 | 0.0 | 0.00 | 0.00 | 0.00 | 72 | 1005.2 |
| 20260505234020 | 84 | 103 | 1.7 | 0.0 | 0.00 | 0.00 | 0.00 | 71 | 1005.1 |
| 20260505233520 | 84 | 9 | 1.7 | 0.0 | 0.00 | 0.00 | 0.00 | 71 | 1005.1 |
| 20260505233021 | 84 | 132 | 1.7 | 0.0 | 0.00 | 0.00 | 0.00 | 70 | 1005.1 |
| 20260505232520 | 84 | 134 | 1.7 | 0.0 | 0.00 | 0.00 | 0.00 | 70 | 1005.1 |
| 20260505232020 | 84 | 94 | 1.7 | 0.0 | 0.00 | 0.00 | 0.00 | 70 | 1005.1 |
| 20260505231520 | 84 | 257 | 1.7 | 0.0 | 0.00 | 0.00 | 0.00 | 71 | 1005.2 |
| 20260505231019 | 84 | 138 | 2.6 | 0.0 | 0.00 | 0.00 | 0.00 | 71 | 1005.2 |
| 20260505230519 | 85 | 142 | 2.6 | 0.0 | 0.00 | 0.00 | 0.00 | 71 | 1005.1 |
| 20260505230019 | 85 | 154 | 3.5 | 0.0 | 0.00 | 0.00 | 0.00 | 70 | 1005.0 |
| 20260505225519 | 85 | 197 | 2.6 | 0.0 | 0.00 | 0.00 | 0.00 | 69 | 1004.9 |
| 20260505225019 | 85 | 134 | 2.6 | 0.0 | 0.00 | 0.00 | 0.00 | 70 | 1005.0 |
| 20260505224527 | 85 | 149 | 2.6 | 0.0 | 0.00 | 0.00 | 0.00 | 69 | 1004.9 |
| 20260505224019 | 86 | 190 | 2.6 | 0.0 | 0.00 | 0.00 | 0.00 | 69 | 1004.9 |
| 20260505223518 | 86 | 165 | 2.6 | 0.0 | 0.00 | 0.00 | 0.00 | 69 | 1004.9 |
| 20260505223019 | 86 | 184 | 2.6 | 0.0 | 0.00 | 0.00 | 0.00 | 69 | 1004.9 |
| 20260505222518 | 86 | 232 | 2.6 | 0.0 | 0.00 | 0.00 | 0.00 | 69 | 1004.9 |
| 20260505222018 | 86 | 93 | 3.5 | 0.0 | 0.00 | 0.00 | 0.00 | 68 | 1004.9 |
| 20260505221517 | 86 | 142 | 2.6 | 0.0 | 0.00 | 0.00 | 0.00 | 68 | 1004.9 |
| 20260505221016 | 86 | 171 | 2.6 | 0.0 | 0.00 | 0.00 | 0.00 | 69 | 1005.1 |
| 20260505220515 | 86 | 194 | 2.6 | 0.0 | 0.00 | 0.00 | 0.00 | 67 | 1005.0 |
| 20260505220015 | 86 | 92 | 3.5 | 0.0 | 0.00 | 0.00 | 0.00 | 68 | 1005.1 |
| 20260505215516 | 87 | 207 | 3.5 | 0.0 | 0.00 | 0.00 | 0.00 | 67 | 1005.1 |
| 20260505215014 | 87 | 263 | 2.6 | 0.0 | 0.00 | 0.00 | 0.00 | 67 | 1005.4 |
| 20260505214519 | 87 | 153 | 2.6 | 0.0 | 0.00 | 0.00 | 0.00 | 65 | 1005.4 |
| 20260505214013 | 87 | 229 | 3.5 | 0.0 | 0.00 | 0.00 | 0.00 | 66 | 1005.5 |
| 20260505213516 | 86 | 148 | 4.3 | 0.0 | 0.00 | 0.00 | 0.00 | 69 | 1005.5 |
| 20260505213013 | 86 | 171 | 4.3 | 0.0 | 0.00 | 0.00 | 0.00 | 67 | 1005.6 |
| 20260505212514 | 86 | 182 | 3.5 | 0.0 | 0.00 | 0.00 | 0.00 | 67 | 1005.8 |
| 20260505212012 | 87 | 253 | 3.5 | 0.0 | 0.00 | 0.00 | 0.00 | 65 | 1005.6 |
| 20260505211512 | 87 | 74 | 4.3 | 0.0 | 0.00 | 0.00 | 0.00 | 67 | 1005.5 |
| 20260505211012 | 88 | 204 | 4.3 | 0.0 | 0.00 | 0.00 | 0.00 | 65 | 1005.6 |
| 20260505210514 | 87 | 195 | 3.5 | 0.0 | 0.00 | 0.00 | 0.00 | 66 | 1005.7 |
| 20260505210011 | 86 | 192 | 3.5 | 0.0 | 0.00 | 0.00 | 0.00 | 68 | 1005.7 |
| 20260505205509 | 86 | 81 | 4.3 | 0.0 | 0.00 | 0.00 | 0.00 | 67 | 1005.8 |
| 20260505205006 | 86 | 203 | 3.5 | 0.0 | 0.00 | 0.00 | 0.00 | 70 | 1005.8 |
| 20260505204505 | 85 | 176 | 2.6 | 0.0 | 0.00 | 0.00 | 0.00 | 70 | 1006.0 |
| 20260505204004 | 85 | 199 | 2.6 | 0.0 | 0.00 | 0.00 | 0.00 | 70 | 1006.0 |
| 20260505203503 | 84 | 211 | 2.6 | 0.0 | 0.00 | 0.00 | 0.00 | 72 | 1006.3 |
| 20260505203002 | 84 | 159 | 2.6 | 0.0 | 0.00 | 0.00 | 0.00 | 72 | 1006.4 |
| 20260505202501 | 84 | 221 | 2.6 | 0.0 | 0.00 | 0.00 | 0.00 | 71 | 1006.6 |
| 20260505202001 | 84 | 183 | 3.5 | 0.0 | 0.00 | 0.00 | 0.00 | 70 | 1006.6 |
| 20260505201609 | 84 | 136 | 3.5 | 0.0 | 0.00 | 0.00 | 0.00 | 72 | 1006.6 |
| 20260505201102 | 83 | 186 | 3.5 | 0.0 | 0.00 | 0.00 | 0.00 | 71 | 1006.7 |
| 20260505200600 | 83 | 215 | 3.5 | 0.0 | 0.00 | 0.00 | 0.00 | 72 | 1006.7 |
| 20260505200106 | 83 | 205 | 2.6 | 0.0 | 0.00 | 0.00 | 0.00 | 72 | 1006.7 |
| 20260505195600 | 83 | 188 | 2.6 | 0.0 | 0.00 | 0.00 | 0.00 | 73 | 1006.9 |
| 20260505195058 | 83 | 144 | 2.6 | 0.0 | 0.00 | 0.00 | 0.00 | 71 | 1006.9 |
| 20260505194607 | 83 | 199 | 2.6 | 0.0 | 0.00 | 0.00 | 0.00 | 72 | 1007.0 |
| 20260505194058 | 83 | 152 | 3.5 | 0.0 | 0.00 | 0.00 | 0.00 | 72 | 1007.0 |
| 20260505193557 | 83 | 128 | 3.5 | 0.0 | 0.00 | 0.00 | 0.00 | 72 | 1007.0 |
| 20260505193058 | 83 | 160 | 3.5 | 0.0 | 0.00 | 0.00 | 0.00 | 72 | 1007.1 |
| 20260505192559 | 84 | 246 | 2.6 | 0.0 | 0.00 | 0.00 | 0.00 | 72 | 1007.2 |
| 20260505192100 | 84 | 88 | 2.6 | 0.0 | 0.00 | 0.00 | 0.00 | 73 | 1007.2 |
| 20260505191557 | 83 | 179 | 3.5 | 0.0 | 0.00 | 0.00 | 0.00 | 72 | 1007.2 |
| 20260505191054 | 83 | 218 | 3.5 | 0.0 | 0.00 | 0.00 | 0.00 | 73 | 1007.1 |
| 20260505190554 | 83 | 190 | 3.5 | 0.0 | 0.00 | 0.00 | 0.00 | 74 | 1007.2 |
| 20260505190059 | 82 | 219 | 2.6 | 0.0 | 0.00 | 0.00 | 0.00 | 75 | 1007.2 |
| 20260505185552 | 82 | 161 | 3.5 | 0.0 | 0.00 | 0.00 | 0.00 | 74 | 1007.3 |
| 20260505185053 | 82 | 180 | 3.5 | 0.0 | 0.00 | 0.00 | 0.00 | 73 | 1007.3 |
| 20260505184552 | 82 | 200 | 2.6 | 0.0 | 0.00 | 0.00 | 0.00 | 75 | 1007.4 |
| 20260505184050 | 82 | 142 | 2.6 | 0.0 | 0.00 | 0.00 | 0.00 | 75 | 1007.5 |
| 20260505183548 | 81 | 210 | 3.5 | 0.0 | 0.00 | 0.00 | 0.00 | 76 | 1007.7 |
| 20260505183052 | 81 | 288 | 3.5 | 0.0 | 0.00 | 0.00 | 0.00 | 76 | 1007.7 |
| 20260505182548 | 81 | 252 | 2.6 | 0.0 | 0.00 | 0.00 | 0.00 | 75 | 1007.8 |
| 20260505182047 | 80 | 211 | 3.5 | 0.0 | 0.00 | 0.00 | 0.00 | 77 | 1007.9 |
| 20260505181548 | 80 | 177 | 3.5 | 0.0 | 0.00 | 0.00 | 0.00 | 77 | 1007.9 |
| 20260505181050 | 80 | 227 | 3.5 | 0.0 | 0.00 | 0.00 | 0.00 | 76 | 1008.0 |
| 20260505180549 | 80 | 159 | 2.6 | 0.0 | 0.00 | 0.00 | 0.00 | 78 | 1007.9 |
| 20260505180044 | 79 | 271 | 2.6 | 0.0 | 0.00 | 0.00 | 0.00 | 79 | 1008.1 |
| 20260505175543 | 79 | 206 | 2.6 | 0.0 | 0.00 | 0.00 | 0.00 | 79 | 1008.2 |
| 20260505175043 | 79 | 250 | 3.5 | 0.0 | 0.00 | 0.00 | 0.00 | 79 | 1008.3 |
| 20260505174546 | 78 | 211 | 3.5 | 0.0 | 0.00 | 0.00 | 0.00 | 79 | 1008.3 |
| 20260505174040 | 78 | 241 | 3.5 | 0.0 | 0.00 | 0.00 | 0.00 | 80 | 1008.3 |
| 20260505173543 | 78 | 180 | 3.5 | 0.0 | 0.00 | 0.00 | 0.00 | 80 | 1008.3 |
| 20260505173045 | 77 | 199 | 2.6 | 0.0 | 0.00 | 0.00 | 0.00 | 81 | 1008.4 |
| 20260505172539 | 77 | 159 | 2.6 | 0.0 | 0.00 | 0.00 | 0.00 | 82 | 1008.5 |
| 20260505172037 | 77 | 248 | 2.6 | 0.0 | 0.00 | 0.00 | 0.00 | 81 | 1008.5 |
| 20260505171537 | 77 | 245 | 3.5 | 0.0 | 0.00 | 0.00 | 0.00 | 82 | 1008.5 |
| 20260505171037 | 77 | 221 | 3.5 | 0.0 | 0.00 | 0.00 | 0.00 | 82 | 1008.5 |
| 20260505170536 | 76 | 153 | 3.5 | 0.0 | 0.00 | 0.00 | 0.00 | 82 | 1008.5 |
| 20260505170037 | 76 | 204 | 3.5 | 0.0 | 0.00 | 0.00 | 0.00 | 82 | 1008.6 |
| 20260505165535 | 76 | 194 | 3.5 | 0.0 | 0.00 | 0.00 | 0.00 | 82 | 1008.5 |
| 20260505165033 | 76 | 165 | 3.5 | 0.0 | 0.00 | 0.00 | 0.00 | 83 | 1008.5 |
| 20260505164533 | 76 | 167 | 2.6 | 0.0 | 0.00 | 0.00 | 0.00 | 83 | 1008.5 |
| 20260505164032 | 75 | 213 | 2.6 | 0.0 | 0.00 | 0.00 | 0.00 | 84 | 1008.5 |
| 20260505163532 | 75 | 237 | 2.6 | 0.0 | 0.00 | 0.00 | 0.00 | 84 | 1008.5 |
| 20260505163031 | 75 | 156 | 3.5 | 0.0 | 0.00 | 0.00 | 0.00 | 84 | 1008.5 |
| 20260505162530 | 75 | 137 | 3.5 | 0.0 | 0.00 | 0.00 | 0.00 | 85 | 1008.5 |
| 20260505162029 | 75 | 128 | 3.5 | 0.0 | 0.00 | 0.00 | 0.00 | 85 | 1008.5 |
| 20260505161529 | 74 | 215 | 3.5 | 0.0 | 0.00 | 0.00 | 0.00 | 85 | 1008.5 |
| 20260505161028 | 74 | 180 | 2.6 | 0.0 | 0.00 | 0.00 | 0.00 | 86 | 1008.6 |
| 20260505160527 | 74 | 155 | 3.5 | 0.0 | 0.00 | 0.00 | 0.00 | 86 | 1008.5 |
| 20260505153024 | 73 | 252 | 2.6 | 0.0 | 0.00 | 0.00 | 0.00 | 87 | 1008.7 |
| 20260505152523 | 73 | 201 | 2.6 | 0.0 | 0.00 | 0.00 | 0.00 | 87 | 1008.6 |
| 20260505152022 | 73 | 153 | 3.5 | 0.0 | 0.00 | 0.00 | 0.00 | 87 | 1008.6 |
| 20260505151522 | 73 | 173 | 2.6 | 0.0 | 0.00 | 0.00 | 0.00 | 87 | 1008.5 |
| 20260505151022 | 73 | 163 | 3.5 | 0.0 | 0.00 | 0.00 | 0.00 | 87 | 1008.4 |
| 20260505150522 | 73 | 232 | 3.5 | 0.0 | 0.00 | 0.00 | 0.00 | 87 | 1008.3 |
| 20260505140520 | 72 | 190 | 3.5 | 0.0 | 0.00 | 0.00 | 0.00 | 87 | 1008.1 |
| 20260505125015 | 71 | 202 | 2.6 | 0.0 | 0.00 | 0.00 | 0.00 | 88 | 1007.4 |
| 20260505124516 | 71 | 248 | 2.6 | 0.0 | 0.00 | 0.00 | 0.00 | 88 | 1007.3 |
| 20260505124016 | 71 | 196 | 3.5 | 0.0 | 0.00 | 0.00 | 0.00 | 88 | 1007.3 |
| 20260505123518 | 71 | 219 | 4.3 | 0.0 | 0.00 | 0.00 | 0.00 | 88 | 1007.3 |
| 20260505123014 | 71 | 219 | 4.3 | 0.0 | 0.00 | 0.00 | 0.00 | 88 | 1007.2 |
| 20260505122514 | 71 | 229 | 2.6 | 0.0 | 0.00 | 0.00 | 0.00 | 88 | 1007.2 |
| 20260505122018 | 71 | 110 | 1.7 | 0.0 | 0.00 | 0.00 | 0.00 | 88 | 1007.0 |
| 20260505121514 | 71 | 153 | 2.6 | 0.0 | 0.00 | 0.00 | 0.00 | 88 | 1007.0 |
| 20260505121014 | 71 | 221 | 4.3 | 0.0 | 0.00 | 0.00 | 0.00 | 88 | 1007.0 |
| 20260505120515 | 71 | 184 | 3.5 | 0.0 | 0.00 | 0.00 | 0.00 | 87 | 1007.0 |
| 20260505120013 | 71 | 215 | 3.5 | 0.0 | 0.00 | 0.00 | 0.00 | 87 | 1006.9 |
| 20260505115513 | 71 | 225 | 3.5 | 0.0 | 0.00 | 0.00 | 0.00 | 87 | 1006.9 |
| 20260505115013 | 71 | 173 | 3.5 | 0.0 | 0.00 | 0.00 | 0.00 | 87 | 1006.9 |
| 20260505114512 | 71 | 209 | 4.3 | 0.0 | 0.00 | 0.00 | 0.00 | 87 | 1006.9 |